User: anonymous   Login
Location: El Bakhil
(32.7726°N, 5.5387°W)
Time: 09:19:21
(UTC+00:00)
Language:

HuskySat-1 - Orbit

View from above orbital plane
View from above orbital plane
View from above satellite
View from above satellite

Ground track
Ground track

The orbit data is extracted from the following two-line orbital elements,

1 45117U 19071G   22329.71797678  .00094074  00000-0  93980-3 0  9992
2 45117  51.6316 330.3203 0011162  52.9968 307.2047 15.64762800158518
Epoch (UTC): 25 November 2022 17:13:53
Eccentricity: 0.0011162
inclination: 51.6316°
perigee height: 366 km
apogee height: 381 km
right ascension of ascending node: 330.3203°
argument of perigee: 52.9968°
revolutions per day: 15.64762800
mean anomaly at epoch: 307.2047°
orbit number at epoch: 15851

The dashed part of the orbit path shows where the satellite is in the earth's shadow,  

DLR